Home   Weather   Hurghada   Past weeks
Flag for Egypt

Past Weather in Hurghada, Egypt — Yesterday and Last 2 Weeks

Now
81 °F

Clear.


Feels Like: 80 °F
Forecast: 90 / 76 °F
Wind: 8 mph from West

Location: Hurguada

Current Time: Oct 20, 2019 at 1:06:51 am

Latest Report: Oct 20, 2019 at 12:00 am


Visibility: 10 mi

Pressure: 29.95 "Hg

Humidity: 32%

Dew Point: 48 °F

Location of HurghadaLocation

Past Weather in Hurghada — Graph

°F

Hurghada Temperature Yesterday

Maximum temperature yesterday: 93 °F (at 2:00 pm)
Minimum temperature yesterday: 73 °F (at 6:00 am)
Average temperature yesterday: 82 °F

High & Low Weather Summary for the Past Weeks

 TemperatureHumidityPressure
High97 °F (Oct 5, 2:00 pm)70% (Oct 14, 9:00 pm)29.98 "Hg (Oct 14, 9:00 pm)
Low73 °F (Oct 19, 6:00 am)13% (Oct 6, 12:00 am)29.71 "Hg (Oct 5, 4:00 pm)
Average85 °F38%29.86 "Hg
* Reported Oct 4 10:00 pm — Oct 19 10:00 pm, Hurghada. Weather by CustomWeather, © 2019

Note: Actual official high and low records may vary slightly from our data, if they occured in-between our weather recording intervals... More about our weather records

Advertising

Hurghada Weather History for the Previous 24 Hours

Scroll right to see more
 ConditionsComfort  
Time TempWeatherWind HumidityBarometerVisibility
10:00 pm
Sat, Oct 19
82 °FClear.6 mph30%29.95 "Hg10 mi
9:00 pm79 °FClear.2 mph58%29.95 "Hg10 mi
7:00 pm84 °FClear.8 mph48%29.92 "Hg10 mi
6:00 pm86 °FClear.7 mph40%29.89 "Hg10 mi
5:00 pm90 °FSunny.9 mph31%29.89 "Hg10 mi
4:00 pm91 °FSunny.8 mph28%29.89 "Hg10 mi
2:00 pm93 °FSunny.13 mph21%29.89 "Hg10 mi
1:00 pm91 °FSunny.15 mph30%29.89 "Hg10 mi
12:00 pm90 °FSunny.17 mph38%29.92 "Hg10 mi
11:00 am88 °FSunny.16 mph35%29.95 "Hg10 mi
10:00 am86 °FSunny.15 mph35%29.95 "Hg10 mi
9:00 am82 °FSunny.15 mph40%29.95 "Hg10 mi
8:00 am81 °FSunny.7 mph42%29.98 "Hg10 mi
7:00 am75 °FSunny.5 mph44%29.95 "Hg10 mi
6:00 am73 °FSunny.8 mph50%29.95 "Hg10 mi
5:00 am75 °FClear.9 mph50%29.92 "Hg10 mi
4:00 am75 °FClear.9 mph50%29.92 "Hg10 mi
3:00 am75 °FClear.9 mph47%29.89 "Hg10 mi
2:00 am75 °FClear.8 mph50%29.89 "Hg10 mi
1:00 am79 °FClear.8 mph42%29.92 "Hg10 mi
Weather by CustomWeather, © 2019

See weather overview